Wetterdaten: Woche 13.02.06 - 19.02.06 (KW7)
Datum Zeit Temperatur Luftfeuchte Luftdruck Niederschlag Windrichtung Wind
13.02.2006 00:00 -10,6 C 81 % 1023 hPa 0,0 l/m N 0,0 km/h (0 Bft)
13.02.2006 01:00 -10,2 C 84 % 1023 hPa 0,0 l/m N 0,0 km/h (0 Bft)
13.02.2006 02:00 -10,4 C 86 % 1023 hPa 0,0 l/m N 0,0 km/h (0 Bft)
13.02.2006 03:00 -10,3 C 86 % 1023 hPa 0,0 l/m N 0,0 km/h (0 Bft)
13.02.2006 04:00 -9,7 C 86 % 1023 hPa 0,0 l/m N 0,0 km/h (0 Bft)
13.02.2006 05:00 -8,7 C 87 % 1023 hPa 0,0 l/m N 0,0 km/h (0 Bft)
13.02.2006 06:00 -7,6 C 89 % 1023 hPa 0,0 l/m N 0,0 km/h (0 Bft)
13.02.2006 07:00 -7,5 C 91 % 1023 hPa 0,0 l/m N 0,0 km/h (0 Bft)
13.02.2006 08:00 -7,5 C 93 % 1023 hPa 0,0 l/m N 0,0 km/h (0 Bft)
13.02.2006 09:00 -7,2 C 93 % 1023 hPa 0,0 l/m N 0,0 km/h (0 Bft)
13.02.2006 10:00 -6,2 C 92 % 1023 hPa 0,0 l/m N 0,0 km/h (0 Bft)
13.02.2006 11:00 -5,4 C 84 % 1023 hPa 0,0 l/m N 0,0 km/h (0 Bft)
13.02.2006 12:00 -4,7 C 78 % 1023 hPa 0,0 l/m N 0,0 km/h (0 Bft)
13.02.2006 13:00 -3,9 C 75 % 1022 hPa 0,0 l/m N 0,0 km/h (0 Bft)
13.02.2006 14:00 -3,5 C 74 % 1022 hPa 0,0 l/m N 0,0 km/h (0 Bft)
13.02.2006 15:00 -2,8 C 74 % 1021 hPa 0,0 l/m N 0,0 km/h (0 Bft)
13.02.2006 16:00 -2,6 C 73 % 1021 hPa 0,0 l/m N 0,0 km/h (0 Bft)
13.02.2006 17:00 -3,8 C 76 % 1021 hPa 0,0 l/m N 0,0 km/h (0 Bft)
13.02.2006 18:00 -5,5 C 78 % 1021 hPa 0,0 l/m N 0,0 km/h (0 Bft)
13.02.2006 19:00 -7,0 C 79 % 1022 hPa 0,0 l/m N 0,0 km/h (0 Bft)
13.02.2006 20:00 -8,2 C 81 % 1022 hPa 0,0 l/m N 0,0 km/h (0 Bft)
13.02.2006 21:00 -9,1 C 81 % 1022 hPa 0,0 l/m N 0,0 km/h (0 Bft)
13.02.2006 22:00 -10,3 C 82 % 1022 hPa 0,0 l/m N 0,0 km/h (0 Bft)
13.02.2006 23:00 -10,8 C 82 % 1021 hPa 0,0 l/m N 0,0 km/h (0 Bft)
14.02.2006 00:00 -11,6 C 82 % 1021 hPa 0,0 l/m N 0,0 km/h (0 Bft)
14.02.2006 01:00 -11,6 C 82 % 1021 hPa 0,0 l/m N 0,0 km/h (0 Bft)
14.02.2006 02:00 -10,3 C 85 % 1021 hPa 0,0 l/m N 0,0 km/h (0 Bft)
14.02.2006 03:00 -8,5 C 89 % 1020 hPa 0,0 l/m N 0,0 km/h (0 Bft)
14.02.2006 04:00 -8,3 C 90 % 1020 hPa 0,0 l/m N 0,0 km/h (0 Bft)
14.02.2006 05:00 -7,8 C 89 % 1020 hPa 0,0 l/m N 0,0 km/h (0 Bft)
14.02.2006 06:00 -7,2 C 89 % 1020 hPa 0,0 l/m N 0,0 km/h (0 Bft)
14.02.2006 07:00 -6,3 C 90 % 1021 hPa 0,0 l/m N 0,0 km/h (0 Bft)
14.02.2006 08:00 -5,7 C 90 % 1021 hPa 0,0 l/m N 0,0 km/h (0 Bft)
14.02.2006 09:00 -4,8 C 88 % 1021 hPa 0,0 l/m N 0,0 km/h (0 Bft)
14.02.2006 10:00 -3,0 C 85 % 1021 hPa 0,0 l/m N 0,0 km/h (0 Bft)
14.02.2006 11:00 0,1 C 73 % 1021 hPa 0,0 l/m N 0,2 km/h (0 Bft)
14.02.2006 12:00 1,6 C 64 % 1021 hPa 0,0 l/m S-SW 7,6 km/h (2 Bft)
14.02.2006 13:00 2,5 C 64 % 1021 hPa 0,0 l/m S-SW 5,6 km/h (1 Bft)
14.02.2006 14:00 4,2 C 61 % 1020 hPa 1,0 l/m S-SO 9,5 km/h (2 Bft)
14.02.2006 15:00 3,6 C 63 % 1020 hPa 0,0 l/m S-SW 8,9 km/h (2 Bft)
14.02.2006 16:00 3,1 C 66 % 1020 hPa 0,0 l/m S-SW 6,8 km/h (2 Bft)
14.02.2006 17:00 2,4 C 71 % 1020 hPa 1,0 l/m SW 0,7 km/h (0 Bft)
14.02.2006 18:00 1,8 C 74 % 1019 hPa 0,0 l/m N 0,0 km/h (0 Bft)
14.02.2006 19:00 1,4 C 78 % 1019 hPa 0,0 l/m N 0,0 km/h (0 Bft)
14.02.2006 20:00 1,1 C 79 % 1019 hPa 0,0 l/m S 2,5 km/h (1 Bft)
14.02.2006 21:00 1,3 C 76 % 1018 hPa 0,0 l/m S 4,3 km/h (1 Bft)
14.02.2006 22:00 1,1 C 76 % 1018 hPa 0,0 l/m N 0,0 km/h (0 Bft)
14.02.2006 23:00 0,5 C 79 % 1018 hPa 0,0 l/m N 0,0 km/h (0 Bft)
15.02.2006 00:00 -0,3 C 81 % 1018 hPa 0,0 l/m N 0,0 km/h (0 Bft)
15.02.2006 01:00 -0,2 C 77 % 1017 hPa 0,0 l/m S-SW 6,2 km/h (2 Bft)
15.02.2006 02:00 0,2 C 76 % 1016 hPa 0,0 l/m S-SW 8,5 km/h (2 Bft)
15.02.2006 03:00 -0,7 C 76 % 1016 hPa 0,0 l/m O 5,3 km/h (1 Bft)
15.02.2006 04:00 -0,4 C 80 % 1016 hPa 0,0 l/m S-SW 5,0 km/h (1 Bft)
15.02.2006 05:00 0,7 C 82 % 1015 hPa 0,0 l/m S-SW 12,9 km/h (3 Bft)
15.02.2006 06:00 0,6 C 89 % 1014 hPa 0,0 l/m SW 11,9 km/h (2 Bft)
15.02.2006 07:00 1,7 C 85 % 1013 hPa 0,0 l/m SW 14,0 km/h (3 Bft)
15.02.2006 08:00 1,9 C 78 % 1012 hPa 0,0 l/m SW 10,2 km/h (2 Bft)
15.02.2006 09:00 1,7 C 81 % 1012 hPa 0,0 l/m S-SW 11,4 km/h (2 Bft)
15.02.2006 10:00 2,1 C 78 % 1011 hPa 1,0 l/m S-SW 10,7 km/h (2 Bft)
15.02.2006 11:00 2,1 C 79 % 1010 hPa 0,0 l/m SW 11,3 km/h (2 Bft)
15.02.2006 12:00 2,6 C 81 % 1009 hPa 0,0 l/m S-SW 13,6 km/h (3 Bft)
15.02.2006 13:00 3,2 C 89 % 1008 hPa 1,0 l/m S-SW 19,1 km/h (3 Bft)
15.02.2006 14:00 3,7 C 89 % 1007 hPa 1,0 l/m W-SW 23,4 km/h (4 Bft)
15.02.2006 15:00 3,4 C 91 % 1006 hPa 2,0 l/m W-SW 21,7 km/h (4 Bft)
15.02.2006 16:00 3,2 C 93 % 1006 hPa 1,0 l/m SW 19,6 km/h (3 Bft)
15.02.2006 17:00 2,9 C 97 % 1006 hPa 0,0 l/m SW 17,2 km/h (3 Bft)
15.02.2006 18:00 3,0 C 97 % 1006 hPa 1,0 l/m SW 17,3 km/h (3 Bft)
15.02.2006 19:00 3,2 C 93 % 1006 hPa 0,0 l/m W-SW 22,8 km/h (4 Bft)
15.02.2006 20:00 3,3 C 90 % 1005 hPa 0,0 l/m SW 21,7 km/h (4 Bft)
15.02.2006 21:00 3,3 C 90 % 1004 hPa 0,0 l/m SW 20,7 km/h (4 Bft)
15.02.2006 22:00 3,4 C 90 % 1003 hPa 0,0 l/m W-SW 18,0 km/h (3 Bft)
15.02.2006 23:00 3,5 C 89 % 1002 hPa 0,0 l/m W-SW 16,1 km/h (3 Bft)
16.02.2006 00:00 3,3 C 93 % 1002 hPa 0,0 l/m W-SW 13,8 km/h (3 Bft)
16.02.2006 01:00 2,9 C 96 % 1000 hPa 1,0 l/m S-SW 11,8 km/h (2 Bft)
16.02.2006 02:00 2,1 C 99 % 1000 hPa 2,0 l/m S-SW 15,8 km/h (3 Bft)
16.02.2006 03:00 2,5 C 100 % 998 hPa 1,0 l/m SW 16,2 km/h (3 Bft)
16.02.2006 04:00 2,1 C 100 % 997 hPa 2,0 l/m S-SW 13,4 km/h (3 Bft)
16.02.2006 05:00 2,0 C 100 % 996 hPa 0,0 l/m SW 15,6 km/h (3 Bft)
16.02.2006 06:00 2,1 C 100 % 995 hPa 0,0 l/m SW 16,7 km/h (3 Bft)
16.02.2006 07:00 3,1 C 100 % 995 hPa 0,0 l/m SW 22,9 km/h (4 Bft)
16.02.2006 08:00 5,1 C 100 % 995 hPa 0,0 l/m SW 26,2 km/h (4 Bft)
16.02.2006 09:00 5,6 C 97 % 995 hPa 0,0 l/m SW 21,7 km/h (4 Bft)
16.02.2006 10:00 6,2 C 94 % 996 hPa 0,0 l/m SW 19,9 km/h (4 Bft)
16.02.2006 11:00 6,4 C 94 % 996 hPa 0,0 l/m W-SW 13,0 km/h (3 Bft)
16.02.2006 12:00 6,2 C 95 % 997 hPa 0,0 l/m W-SW 8,2 km/h (2 Bft)
16.02.2006 13:00 6,8 C 90 % 997 hPa 0,0 l/m W-SW 13,9 km/h (3 Bft)
16.02.2006 14:00 7,8 C 79 % 997 hPa 0,0 l/m S-SW 14,8 km/h (3 Bft)
16.02.2006 15:00 7,2 C 77 % 997 hPa 0,0 l/m SW 16,6 km/h (3 Bft)
16.02.2006 16:00 6,7 C 79 % 996 hPa 0,0 l/m S-SW 15,2 km/h (3 Bft)
16.02.2006 17:00 5,5 C 81 % 996 hPa 0,0 l/m SW 14,8 km/h (3 Bft)
16.02.2006 18:00 4,4 C 96 % 996 hPa 0,0 l/m S-SW 15,7 km/h (3 Bft)
16.02.2006 19:00 4,5 C 94 % 995 hPa 0,0 l/m S-SW 15,2 km/h (3 Bft)
16.02.2006 20:00 4,2 C 90 % 995 hPa 1,0 l/m S-SW 12,4 km/h (3 Bft)
16.02.2006 21:00 4,7 C 86 % 995 hPa 0,0 l/m SW 17,6 km/h (3 Bft)
16.02.2006 22:00 3,4 C 93 % 996 hPa 0,0 l/m SW 14,8 km/h (3 Bft)
16.02.2006 23:00 3,2 C 98 % 996 hPa 0,0 l/m SW 14,1 km/h (3 Bft)
17.02.2006 00:00 3,1 C 97 % 995 hPa 0,0 l/m S-SW 16,2 km/h (3 Bft)
17.02.2006 01:00 2,7 C 97 % 996 hPa 1,0 l/m S-SW 16,1 km/h (3 Bft)
17.02.2006 02:00 2,6 C 98 % 996 hPa 1,0 l/m S-SW 16,0 km/h (3 Bft)
17.02.2006 03:00 2,5 C 95 % 997 hPa 0,0 l/m SW 19,7 km/h (3 Bft)
17.02.2006 04:00 2,8 C 82 % 997 hPa 0,0 l/m W-SW 20,8 km/h (4 Bft)
17.02.2006 05:00 2,6 C 78 % 998 hPa 0,0 l/m SW 16,7 km/h (3 Bft)
17.02.2006 06:00 2,3 C 79 % 998 hPa 0,0 l/m SW 15,7 km/h (3 Bft)
17.02.2006 07:00 1,9 C 86 % 998 hPa 0,0 l/m S-SW 13,8 km/h (3 Bft)
17.02.2006 08:00 2,0 C 83 % 998 hPa 0,0 l/m S-SW 17,3 km/h (3 Bft)
17.02.2006 09:00 3,0 C 79 % 999 hPa 0,0 l/m S-SW 16,5 km/h (3 Bft)
17.02.2006 10:00 3,7 C 73 % 999 hPa 0,0 l/m SW 19,5 km/h (3 Bft)
17.02.2006 11:00 4,5 C 68 % 999 hPa 0,0 l/m SW 24,5 km/h (4 Bft)
17.02.2006 12:00 5,4 C 61 % 999 hPa 0,0 l/m W-SW 22,8 km/h (4 Bft)
17.02.2006 13:00 4,4 C 71 % 999 hPa 0,0 l/m S-SW 22,1 km/h (4 Bft)
17.02.2006 14:00 3,4 C 83 % 999 hPa 0,0 l/m S-SW 19,1 km/h (3 Bft)
17.02.2006 15:00 3,4 C 81 % 1000 hPa 0,0 l/m SW 20,2 km/h (4 Bft)
17.02.2006 16:00 2,8 C 85 % 1000 hPa 0,0 l/m SW 23,4 km/h (4 Bft)
17.02.2006 17:00 2,5 C 84 % 1001 hPa 0,0 l/m S-SW 16,6 km/h (3 Bft)
17.02.2006 18:00 2,4 C 87 % 1001 hPa 0,0 l/m SW 17,0 km/h (3 Bft)
17.02.2006 19:00 2,6 C 85 % 1002 hPa 0,0 l/m S-SW 16,9 km/h (3 Bft)
17.02.2006 20:00 2,4 C 80 % 1002 hPa 0,0 l/m SW 14,2 km/h (3 Bft)
17.02.2006 21:00 2,1 C 85 % 1003 hPa 0,0 l/m S-SW 17,1 km/h (3 Bft)
17.02.2006 22:00 2,2 C 86 % 1003 hPa 0,0 l/m S-SW 14,1 km/h (3 Bft)
17.02.2006 23:00 1,9 C 91 % 1003 hPa 0,0 l/m S-SW 11,1 km/h (2 Bft)
18.02.2006 00:00 1,4 C 93 % 1003 hPa 0,0 l/m S-SW 9,2 km/h (2 Bft)
18.02.2006 01:00 2,0 C 92 % 1003 hPa 0,0 l/m S-SW 15,2 km/h (3 Bft)
18.02.2006 02:00 2,2 C 88 % 1003 hPa 1,0 l/m S-SW 11,1 km/h (2 Bft)
18.02.2006 03:00 2,0 C 90 % 1002 hPa 0,0 l/m SW 6,9 km/h (2 Bft)
18.02.2006 04:00 1,5 C 92 % 1002 hPa 0,0 l/m S-SW 8,1 km/h (2 Bft)
18.02.2006 05:00 1,2 C 95 % 1001 hPa 0,0 l/m S 1,2 km/h (1 Bft)
18.02.2006 06:00 1,0 C 96 % 1000 hPa 1,0 l/m N 0,0 km/h (0 Bft)
18.02.2006 07:00 1,1 C 97 % 1000 hPa 1,0 l/m N 0,0 km/h (0 Bft)
18.02.2006 08:00 1,7 C 99 % 1000 hPa 0,0 l/m W-SW 8,3 km/h (2 Bft)
18.02.2006 09:00 3,4 C 95 % 1001 hPa 0,0 l/m SW 18,2 km/h (3 Bft)
18.02.2006 10:00 4,2 C 79 % 1002 hPa 0,0 l/m SW 19,6 km/h (3 Bft)
18.02.2006 11:00 4,5 C 75 % 1002 hPa 0,0 l/m S-SW 15,9 km/h (3 Bft)
18.02.2006 12:00 4,5 C 84 % 1002 hPa 0,0 l/m S 16,1 km/h (3 Bft)
18.02.2006 13:00 5,0 C 77 % 1002 hPa 0,0 l/m S-SW 17,6 km/h (3 Bft)
18.02.2006 14:00 5,4 C 74 % 1002 hPa 0,0 l/m S-SW 12,7 km/h (3 Bft)
18.02.2006 15:00 5,4 C 72 % 1001 hPa 0,0 l/m S-SW 11,8 km/h (2 Bft)
18.02.2006 16:00 5,0 C 69 % 1001 hPa 0,0 l/m S-SW 12,9 km/h (3 Bft)
18.02.2006 17:00 4,3 C 72 % 1002 hPa 0,0 l/m SW 12,4 km/h (3 Bft)
18.02.2006 18:00 3,7 C 73 % 1002 hPa 0,0 l/m S-SW 11,9 km/h (2 Bft)
18.02.2006 19:00 2,8 C 74 % 1003 hPa 0,0 l/m S-SW 12,7 km/h (3 Bft)
18.02.2006 20:00 3,5 C 65 % 1003 hPa 0,0 l/m S-SW 13,6 km/h (3 Bft)
18.02.2006 21:00 3,5 C 77 % 1005 hPa 0,0 l/m S 19,9 km/h (4 Bft)
18.02.2006 22:00 3,2 C 81 % 1005 hPa 0,0 l/m S 12,3 km/h (3 Bft)
18.02.2006 23:00 3,3 C 81 % 1005 hPa 0,0 l/m S 18,8 km/h (3 Bft)
19.02.2006 00:00 2,9 C 81 % 1006 hPa 0,0 l/m S-SO 15,2 km/h (3 Bft)
19.02.2006 01:00 3,0 C 79 % 1006 hPa 0,0 l/m S 12,1 km/h (2 Bft)
19.02.2006 02:00 2,6 C 79 % 1006 hPa 0,0 l/m S-SO 6,9 km/h (2 Bft)
19.02.2006 03:00 1,2 C 84 % 1006 hPa 0,0 l/m S-SW 4,1 km/h (1 Bft)
19.02.2006 04:00 0,6 C 87 % 1005 hPa 0,0 l/m S 4,1 km/h (1 Bft)
19.02.2006 05:00 0,8 C 90 % 1005 hPa 0,0 l/m N-NO 5,6 km/h (1 Bft)
19.02.2006 06:00 -0,3 C 90 % 1005 hPa 0,0 l/m N 0,0 km/h (0 Bft)
19.02.2006 07:00 -0,8 C 92 % 1005 hPa 0,0 l/m N 0,0 km/h (0 Bft)
19.02.2006 08:00 -0,1 C 93 % 1004 hPa 0,0 l/m N 0,0 km/h (0 Bft)
19.02.2006 09:00 1,7 C 93 % 1004 hPa 0,0 l/m N 0,2 km/h (0 Bft)
19.02.2006 10:00 3,6 C 73 % 1004 hPa 0,0 l/m O-NO 10,2 km/h (2 Bft)
19.02.2006 11:00 6,1 C 52 % 1003 hPa 0,0 l/m NO 10,4 km/h (2 Bft)
19.02.2006 12:00 7,9 C 46 % 1003 hPa 0,0 l/m NO 14,8 km/h (3 Bft)
19.02.2006 13:00 9,5 C 42 % 1002 hPa 0,0 l/m NO 13,0 km/h (3 Bft)
19.02.2006 14:00 9,5 C 42 % 1001 hPa 0,0 l/m NO 6,7 km/h (2 Bft)
19.02.2006 15:00 9,0 C 45 % 1000 hPa 0,0 l/m N 5,2 km/h (1 Bft)
19.02.2006 16:00 7,9 C 50 % 999 hPa 0,0 l/m N 8,1 km/h (2 Bft)
19.02.2006 17:00 6,5 C 53 % 998 hPa 0,0 l/m W-NW 5,6 km/h (1 Bft)
19.02.2006 18:00 5,0 C 56 % 997 hPa 0,0 l/m W-NW 7,6 km/h (2 Bft)
19.02.2006 19:00 4,4 C 57 % 997 hPa 0,0 l/m W-NW 8,8 km/h (2 Bft)
19.02.2006 20:00 3,7 C 60 % 997 hPa 0,0 l/m W 9,1 km/h (2 Bft)
19.02.2006 21:00 2,8 C 68 % 998 hPa 0,0 l/m W 7,7 km/h (2 Bft)
19.02.2006 22:00 2,0 C 75 % 999 hPa 0,0 l/m W 1,6 km/h (1 Bft)
19.02.2006 23:00 1,1 C 79 % 999 hPa 1,0 l/m SW 3,4 km/h (1 Bft)
Min-Datum _ 14.02.06 19.02.06 16.02.06 - - 13.02.06
_ Min-Zeit 01:45 13:15 05:32 - - 00:00
Minimum _ -12,1 C 41 % 995 hPa - - 0,0 km/h (0 Bft)
Max-Datum _ 19.02.06 16.02.06 13.02.06 15.02.06 - 18.02.06
_ Max-Zeit 13:33 02:38 00:00 15:00 - 21:08
Maximum _ 9,7 C 100 % 1023 hPa 2,0 l/m - 68,0 km/h
S (8 Bft)
Durchschnitt _ 0,9 C 82 % 1008 hPa #22,0 l/m S-SW 9,8 km/h (2 Bft)

Durchschnitt Minimum Temp.0,6 C
Durchschnitt Maximum Temp.1,3 C